Location: Demmingen
(48.6757°N, 10.4375°E)
Time: 08:54:14
(UTC+00:00)

USA 267 - Pass Details

Date: 21 August 2024
Orbit: 1096 x 1111 km, 123.1° (Epoch: 03 September)

Event Time Altitude Azimuth Distance (km) Brightness Sun altitude
Exits shadow 20:17:43 11° 180° (S) 2,867 5.1 -17.3°
Maximum altitude 20:22:45 26° 233° (SW) 2,002 4.7 -17.9°
Drops below altitude 10° 20:28:07 10° 288° (WNW) 2,972 6.5 -18.5°
Sets 20:31:05 0° 301° (WNW) 3,936 7.6 -18.9°
